Total_Precipitation_Accumulation
0.15 0.16 0.11 0.11 0.10 0.15 0.17 0.22 0.20 0.15 0.15 0.12 0.11 0.08 0.05 0.03 0.03 0.04 0.04 0.07 0.16 0.14 0.14 0.22 0.30 0.32 0.30 0.30 0.33 0.37 0.39 0.40 0.40 0.40 0.41 0.37 0.33 0.39 0.42 0.47 0.54 0.60 0.60
0.12 0.12 0.07 0.06 0.05 0.07 0.07 0.12 0.17 0.16 0.16 0.19 0.12 0.15 0.14 0.12 0.07 0.06 0.05 0.06 0.11 0.14 0.13 0.14 0.17 0.24 0.32 0.38 0.40 0.46 0.43 0.40 0.40 0.37 0.39 0.40 0.35 0.36 0.40 0.45 0.54 0.76 0.71
0.19 0.16 0.13 0.11 0.07 0.10 0.15 0.15 0.13 0.15 0.14 0.17 0.19 0.23 0.26 0.21 0.20 0.17 0.13 0.08 0.10 0.11 0.15 0.18 0.36 0.38 0.36 0.45 0.71 0.75 0.61 0.49 0.44 0.46 0.50 0.59 0.58 0.53 0.49 0.47 0.51 0.71 0.66
0.16 0.23 0.22 0.10 0.27 0.32 0.34 0.26 0.25 0.16 0.12 0.16 0.13 0.15 0.18 0.28 0.28 0.25 0.27 0.21 0.13 0.11 0.12 0.12 0.22 0.46 0.63 0.69 0.95 1.28 1.16 0.88 0.72 0.65 0.57 0.54 0.63 0.66 0.58 0.47 0.53 0.69 0.65
0.21 0.19 0.19 0.21 0.30 0.35 0.36 0.31 0.34 0.31 0.27 0.29 0.30 0.24 0.16 0.15 0.23 0.30 0.29 0.28 0.23 0.18 0.13 0.18 0.21 0.26 0.41 0.51 0.58 0.85 1.38 1.20 1.01 0.97 0.84 0.72 0.65 0.64 0.65 0.60 0.66 0.72 0.72
0.45 0.45 0.33 0.23 0.30 0.23 0.22 0.24 0.23 0.28 0.31 0.37 0.35 0.31 0.29 0.28 0.27 0.26 0.34 0.39 0.38 0.39 0.33 0.31 0.30 0.28 0.36 0.35 0.38 0.51 0.81 1.28 1.34 1.47 1.52 1.37 1.07 0.94 0.93 0.87 0.93 0.93 0.84
0.54 0.55 0.41 0.36 0.35 0.19 0.12 0.21 0.22 0.22 0.22 0.27 0.36 0.33 0.33 0.54 0.75 0.77 0.68 0.61 0.60 0.58 0.68 0.54 0.39 0.30 0.28 0.43 0.47 0.36 0.42 0.67 0.96 1.25 1.68 2.40 2.95 2.98 2.46 2.11 2.03 2.19 2.22
0.96 0.61 0.44 0.49 0.35 0.26 0.21 0.18 0.23 0.20 0.15 0.17 0.24 0.25 0.23 0.19 0.30 0.44 0.47 0.35 0.26 0.38 0.44 0.55 0.63 0.52 0.34 0.24 0.25 0.34 0.36 0.43 0.66 0.89 1.22 1.63 2.03 2.43 2.94 2.72 2.45 2.48 2.61
1.66 1.28 1.02 0.91 0.71 0.53 0.56 0.45 0.54 0.53 0.42 0.35 0.33 0.45 0.38 0.25 0.18 0.11 0.14 0.18 0.23 0.22 0.24 0.27 0.31 0.34 0.30 0.27 0.30 0.32 0.39 0.55 0.66 0.87 0.84 1.12 1.37 1.62 2.29 2.60 2.38 1.99 1.87
1.67 1.85 1.87 1.64 1.40 1.30 1.14 1.18 1.03 1.14 1.22 1.09 0.91 0.73 0.72 0.58 0.52 0.30 0.15 0.22 0.25 0.26 0.28 0.26 0.25 0.33 0.42 0.42 0.53 0.62 0.72 0.82 0.80 0.80 1.24 1.50 1.55 1.67 2.06 2.67 3.06 3.13 2.76
1.34 1.57 1.73 1.88 1.88 1.95 1.90 1.97 1.90 1.72 1.54 1.36 1.12 1.00 0.89 0.88 0.86 1.01 0.73 0.36 0.29 0.22 0.23 0.26 0.29 0.35 0.41 0.48 0.57 0.64 0.70 0.78 0.76 0.80 1.22 1.69 2.14 2.38 2.70 3.12 3.57 4.66 4.71
1.65 1.74 1.95 1.94 1.93 1.69 1.51 1.62 1.74 1.47 1.18 1.01 0.92 0.98 1.06 1.06 0.90 0.99 0.94 0.51 0.37 0.21 0.17 0.16 0.19 0.26 0.28 0.36 0.55 0.83 0.90 0.97 1.14 1.16 1.60 2.11 2.37 2.64 2.89 3.24 3.67 4.49 4.11
1.16 1.11 1.09 1.31 1.36 1.18 0.95 0.93 0.96 0.93 0.85 0.79 0.81 0.76 0.78 0.77 0.76 0.82 0.87 0.62 0.46 0.32 0.29 0.23 0.25 0.28 0.28 0.34 0.49 0.76 0.97 1.19 1.42 1.70 2.91 3.30 2.97 2.13 3.18 2.62 3.49 4.96 3.59
0.73 0.85 0.74 0.87 0.95 0.90 0.80 0.62 0.58 0.65 0.75 0.88 0.90 0.83 0.77 0.66 0.71 0.76 0.78 0.83 0.71 0.43 0.32 0.25 0.24 0.40 0.53 0.66 0.85 0.91 0.79 0.94 1.11 1.72 2.18 2.37 1.97 1.67 2.23 2.78 1.98 1.89 1.90
0.79 0.73 0.90 0.80 0.76 0.72 0.67 0.62 0.59 0.58 0.62 0.66 0.74 0.87 0.89 0.78 0.82 0.87 0.96 1.18 1.59 1.41 0.90 0.65 0.73 0.79 0.87 0.89 0.88 0.83 0.74 0.77 0.65 0.47 0.42 0.44 0.38 0.39 0.51 0.69 0.51 0.62 0.79
0.91 0.79 0.78 0.82 0.92 0.88 0.79 0.60 0.49 0.42 0.51 0.58 0.61 0.69 0.73 0.70 0.74 0.85 1.03 1.16 1.46 1.90 1.67 0.76 0.76 0.83 0.90 0.89 0.84 0.69 0.50 0.50 0.38 0.34 0.30 0.28 0.26 0.27 0.26 0.26 0.28 0.38 0.55
0.80 0.77 0.78 0.72 0.69 0.74 0.71 0.73 0.47 0.42 0.39 0.37 0.40 0.46 0.47 0.55 0.59 0.63 0.73 0.85 1.06 1.40 1.58 0.88 0.66 0.54 0.46 0.31 0.24 0.27 0.24 0.18 0.17 0.25 0.27 0.29 0.28 0.27 0.25 0.25 0.29 0.34 0.44
0.87 0.77 0.70 0.82 0.74 0.68 0.68 0.70 0.64 0.50 0.46 0.37 0.33 0.35 0.41 0.46 0.50 0.57 0.63 0.67 0.78 0.86 1.04 0.73 0.35 0.27 0.23 0.18 0.17 0.21 0.20 0.19 0.18 0.25 0.31 0.30 0.34 0.38 0.38 0.37 0.37 0.40 0.45
1.50 1.13 1.04 0.88 0.75 0.76 0.72 0.69 0.66 0.69 0.66 0.57 0.52 0.51 0.52 0.67 0.73 0.76 0.87 0.88 0.86 0.84 0.84 0.88 0.56 0.35 0.29 0.29 0.36 0.39 0.38 0.38 0.35 0.48 0.55 0.57 0.65 0.69 0.69 0.67 0.72 0.77 0.78
2.93 2.06 1.53 1.36 1.40 1.24 1.09 0.99 0.85 0.80 0.73 0.70 0.68 0.70 0.76 0.79 0.77 0.78 0.85 0.83 0.90 0.97 1.01 1.01 0.92 0.77 0.61 0.50 0.64 0.62 0.54 0.47 0.47 0.57 0.73 0.72 0.77 0.81 0.85 0.82 0.81 0.73 0.68
3.27 3.02 2.65 2.20 2.03 2.19 2.14 1.95 1.66 1.41 1.28 1.20 1.13 1.03 0.92 1.00 0.99 0.90 0.94 0.90 1.08 1.26 1.42 1.61 1.51 1.38 1.28 1.09 0.93 0.85 1.00 0.90 0.87 0.73 0.65 0.70 0.79 0.90 1.01 1.10 1.05 1.00 0.97
3.57 3.84 3.35 2.80 2.52 2.22 2.66 2.71 2.51 2.28 2.15 1.91 1.60 1.30 1.19 1.35 1.18 1.20 1.15 1.14 1.20 1.42 1.60 1.71 1.57 1.38 1.05 0.94 0.93 1.15 1.41 1.58 1.50 0.79 0.72 0.93 1.01 1.12 1.09 1.10 1.28 1.17 1.11
4.29 4.50 4.43 3.75 3.34 3.12 3.23 3.10 3.47 3.14 2.77 2.36 2.00 1.70 1.51 1.40 1.49 1.34 1.44 1.46 1.53 1.79 1.78 1.59 1.50 1.31 1.25 1.11 1.41 1.72 1.75 1.81 1.67 1.16 1.09 1.30 1.19 1.29 1.28 1.27 1.37 1.15 1.08
3.34 4.03 4.50 4.54 4.48 4.19 3.92 3.37 3.46 3.37 3.12 2.63 2.32 2.13 1.91 1.73 1.77 1.87 1.74 1.93 1.75 1.57 1.45 1.42 1.41 1.32 1.34 1.36 1.55 1.82 1.73 1.81 1.61 1.23 1.05 1.17 0.88 1.01 1.10 1.20 1.51 1.22 1.05
2.62 2.92 2.96 3.15 3.34 3.33 3.38 3.06 2.65 2.26 2.09 1.93 1.75 1.68 1.73 1.65 1.79 1.93 1.88 1.85 1.48 1.31 1.52 1.64 1.49 1.44 1.41 1.25 1.13 1.40 1.60 1.55 1.47 1.06 0.90 1.01 0.84 0.87 0.91 0.87 0.93 1.12 0.96
2.32 2.28 2.16 2.10 2.22 2.38 2.85 3.16 3.02 2.42 1.92 1.65 1.49 1.34 1.39 1.08 1.23 1.58 1.30 1.06 1.11 0.97 1.08 1.19 1.18 1.10 1.05 1.09 1.29 1.18 1.51 2.25 1.82 1.51 0.89 1.45 1.14 1.03 1.37 0.72 0.71 0.84 0.76